User: anonymous   Login
Location: Unspecified
(0.0000°N, 0.0000°E)
Time: 13:04:20
(UTC+02:00)
Language:

Delta 168 - Orbit

View from above orbital plane
View from above orbital plane
View from above satellite
View from above satellite

Ground track
Ground track

The orbit data is extracted from the following two-line orbital elements,

1 14051U 83041B   15186.59846814  .00005542  00000-0  53391-3 0  9993
2 14051 025.3330 295.2705 1111419 150.2646 336.0618 13.05138843485124
Epoch (UTC): 05 July 2015 14:21:47
Eccentricity: 0.1111419
inclination: 25.3330°
perigee height: 395 km
apogee height: 2089 km
right ascension of ascending node: 295.2705°
argument of perigee: 150.2646°
revolutions per day: 13.05138843
mean anomaly at epoch: 336.0618°
orbit number at epoch: 48512

The dashed part of the orbit path shows where the satellite is in the earth's shadow,  

DLR